owner,sensor,date,latitude,longitude,vertical_datum,mass_concentration_of_oxygen_in_sea_water,qcFlag 
DISL,ioos:station:DISL:MHPA:1,2014-10-01T00:00:00Z,30.6671,-87.9365,1.127,4.88,1111122 
DISL,ioos:station:DISL:MHPA:1,2014-10-01T00:30:00Z,30.6671,-87.9365,1.157,5.01,1111122 
DISL,ioos:station:DISL:MHPA:1,2014-10-01T01:00:00Z,30.6671,-87.9365,1.182,5.34,1111122 
DISL,ioos:station:DISL:MHPA:1,2014-10-01T01:30:00Z,30.6671,-87.9365,1.221,5.71,1111122 
DISL,ioos:station:DISL:MHPA:1,2014-10-01T02:00:00Z,30.6671,-87.9365,1.25,5.81,1111122 
DISL,ioos:station:DISL:MHPA:1,2014-10-01T02:30:00Z,30.6671,-87.9365,1.27,5.68,1111122 
DISL,ioos:station:DISL:MHPA:1,2014-10-01T03:00:00Z,30.6671,-87.9365,1.296,5.77,1111122 
DISL,ioos:station:DISL:MHPA:1,2014-10-01T03:30:00Z,30.6671,-87.9365,1.33,6.04,1111122 
DISL,ioos:station:DISL:MHPA:1,2014-10-01T04:00:00Z,30.6671,-87.9365,1.36,6.38,1111122 
DISL,ioos:station:DISL:MHPA:1,2014-10-01T04:30:00Z,30.6671,-87.9365,1.371,6.82,1111122 
DISL,ioos:station:DISL:MHPA:1,2014-10-01T05:00:00Z,30.6671,-87.9365,1.4,6.53,1111122 
DISL,ioos:station:DISL:MHPA:1,2014-10-01T05:30:00Z,30.6671,-87.9365,1.424,6.17,1111122 
DISL,ioos:station:DISL:MHPA:1,2014-10-01T06:00:00Z,30.6671,-87.9365,1.444,5.67,1111122 
DISL,ioos:station:DISL:MHPA:1,2014-10-01T06:30:00Z,30.6671,-87.9365,1.457,5.8,1111122 
DISL,ioos:station:DISL:MHPA:1,2014-10-01T07:00:00Z,30.6671,-87.9365,1.478,5.56,1111122 
DISL,ioos:station:DISL:MHPA:1,2014-10-01T07:30:00Z,30.6671,-87.9365,1.488,5.21,1111122 
DISL,ioos:station:DISL:MHPA:1,2014-10-01T08:00:00Z,30.6671,-87.9365,1.499,5.2,1111122 
DISL,ioos:station:DISL:MHPA:1,2014-10-01T08:30:00Z,30.6671,-87.9365,1.514,4.6,1111122 
DISL,ioos:station:DISL:MHPA:1,2014-10-01T09:00:00Z,30.6671,-87.9365,1.523,4.69,1111122 
DISL,ioos:station:DISL:MHPA:1,2014-10-01T09:30:00Z,30.6671,-87.9365,1.524,4.32,1111122 
DISL,ioos:station:DISL:MHPA:1,2014-10-01T10:00:00Z,30.6671,-87.9365,1.513,4.21,1111122 
DISL,ioos:station:DISL:MHPA:1,2014-10-01T10:30:00Z,30.6671,-87.9365,1.496,3.76,1111122 
DISL,ioos:station:DISL:MHPA:1,2014-10-01T11:00:00Z,30.6671,-87.9365,1.472,3.39,1111122 
DISL,ioos:station:DISL:MHPA:1,2014-10-01T11:30:00Z,30.6671,-87.9365,1.453,3.58,1111122 
DISL,ioos:station:DISL:MHPA:1,2014-10-01T12:00:00Z,30.6671,-87.9365,1.426,3.73,1111122 
DISL,ioos:station:DISL:MHPA:1,2014-10-01T12:30:00Z,30.6671,-87.9365,1.396,3.43,1111122 
DISL,ioos:station:DISL:MHPA:1,2014-10-01T13:00:00Z,30.6671,-87.9365,1.364,2.77,1111122 
DISL,ioos:station:DISL:MHPA:1,2014-10-01T13:30:00Z,30.6671,-87.9365,1.329,2.78,1111122 
DISL,ioos:station:DISL:MHPA:1,2014-10-01T14:00:00Z,30.6671,-87.9365,1.29,3.08,1111122 
DISL,ioos:station:DISL:MHPA:1,2014-10-01T14:30:00Z,30.6671,-87.9365,1.258,3.41,1111122 
DISL,ioos:station:DISL:MHPA:1,2014-10-01T15:00:00Z,30.6671,-87.9365,1.234,2.98,1111122 
DISL,ioos:station:DISL:MHPA:1,2014-10-01T15:30:00Z,30.6671,-87.9365,1.19,3.78,1111122 
DISL,ioos:station:DISL:MHPA:1,2014-10-01T16:00:00Z,30.6671,-87.9365,1.169,4.05,1111122 
DISL,ioos:station:DISL:MHPA:1,2014-10-01T16:30:00Z,30.6671,-87.9365,1.144,3.72,1111122 
DISL,ioos:station:DISL:MHPA:1,2014-10-01T17:00:00Z,30.6671,-87.9365,1.113,3.63,1111122 
DISL,ioos:station:DISL:MHPA:1,2014-10-01T17:30:00Z,30.6671,-87.9365,1.085,3.91,1111122 
DISL,ioos:station:DISL:MHPA:1,2014-10-01T18:00:00Z,30.6671,-87.9365,1.071,4.12,1111122 
DISL,ioos:station:DISL:MHPA:1,2014-10-01T18:30:00Z,30.6671,-87.9365,1.057,4.45,1111122 
DISL,ioos:station:DISL:MHPA:1,2014-10-01T19:00:00Z,30.6671,-87.9365,1.039,4.87,1111122 
DISL,ioos:station:DISL:MHPA:1,2014-10-01T19:30:00Z,30.6671,-87.9365,1.023,4.97,1111122 
DISL,ioos:station:DISL:MHPA:1,2014-10-01T20:00:00Z,30.6671,-87.9365,1.016,5.05,1111122 
DISL,ioos:station:DISL:MHPA:1,2014-10-01T20:30:00Z,30.6671,-87.9365,1.022,5.66,1111122 
DISL,ioos:station:DISL:MHPA:1,2014-10-01T21:00:00Z,30.6671,-87.9365,1.022,5.93,1111122 
DISL,ioos:station:DISL:MHPA:1,2014-10-01T21:30:00Z,30.6671,-87.9365,1.037,6.76,1111122 
DISL,ioos:station:DISL:MHPA:1,2014-10-01T22:00:00Z,30.6671,-87.9365,1.061,6.82,1111122 
DISL,ioos:station:DISL:MHPA:1,2014-10-01T22:30:00Z,30.6671,-87.9365,1.055,7.24,1111122 
DISL,ioos:station:DISL:MHPA:1,2014-10-01T23:00:00Z,30.6671,-87.9365,1.074,8.08,1111122 
DISL,ioos:station:DISL:MHPA:1,2014-10-01T23:30:00Z,30.6671,-87.9365,1.103,8.52,1111122 
DISL,ioos:station:DISL:MHPA:1,2014-10-02T00:00:00Z,30.6671,-87.9365,1.117,8.32,1111122 
DISL,ioos:station:DISL:MHPA:1,2014-10-02T00:30:00Z,30.6671,-87.9365,1.144,7.95,1111122 
DISL,ioos:station:DISL:MHPA:1,2014-10-02T01:00:00Z,30.6671,-87.9365,1.195,6.91,1111122 
DISL,ioos:station:DISL:MHPA:1,2014-10-02T01:30:00Z,30.6671,-87.9365,1.22,6.76,1111122 
DISL,ioos:station:DISL:MHPA:1,2014-10-02T02:00:00Z,30.6671,-87.9365,1.229,6.35,1111122 
DISL,ioos:station:DISL:MHPA:1,2014-10-02T02:30:00Z,30.6671,-87.9365,1.264,6.19,1111122 
DISL,ioos:station:DISL:MHPA:1,2014-10-02T03:00:00Z,30.6671,-87.9365,1.284,6.26,1111122 
DISL,ioos:station:DISL:MHPA:1,2014-10-02T03:30:00Z,30.6671,-87.9365,1.31,6.2,1111122 
DISL,ioos:station:DISL:MHPA:1,2014-10-02T04:00:00Z,30.6671,-87.9365,1.334,6.45,1111122 
DISL,ioos:station:DISL:MHPA:1,2014-10-02T04:30:00Z,30.6671,-87.9365,1.365,6.27,1111122 
DISL,ioos:station:DISL:MHPA:1,2014-10-02T05:00:00Z,30.6671,-87.9365,1.384,6.36,1111122 
DISL,ioos:station:DISL:MHPA:1,2014-10-02T05:30:00Z,30.6671,-87.9365,1.407,6.17,1111122 
DISL,ioos:station:DISL:MHPA:1,2014-10-02T06:00:00Z,30.6671,-87.9365,1.426,6.02,1111122 
DISL,ioos:station:DISL:MHPA:1,2014-10-02T06:30:00Z,30.6671,-87.9365,1.44,6.25,1111122 
DISL,ioos:station:DISL:MHPA:1,2014-10-02T07:00:00Z,30.6671,-87.9365,1.462,5.71,1111122 
DISL,ioos:station:DISL:MHPA:1,2014-10-02T07:30:00Z,30.6671,-87.9365,1.469,6.43,1111122 
DISL,ioos:station:DISL:MHPA:1,2014-10-02T08:00:00Z,30.6671,-87.9365,1.484,6.28,1111122 
DISL,ioos:station:DISL:MHPA:1,2014-10-02T08:30:00Z,30.6671,-87.9365,1.502,5.53,1111122 
DISL,ioos:station:DISL:MHPA:1,2014-10-02T09:00:00Z,30.6671,-87.9365,1.522,4.98,1111122 
DISL,ioos:station:DISL:MHPA:1,2014-10-02T09:30:00Z,30.6671,-87.9365,1.53,4.94,1111122 
DISL,ioos:station:DISL:MHPA:1,2014-10-02T10:00:00Z,30.6671,-87.9365,1.541,4.41,1111122 
DISL,ioos:station:DISL:MHPA:1,2014-10-02T10:30:00Z,30.6671,-87.9365,1.536,4.2,1111122 
DISL,ioos:station:DISL:MHPA:1,2014-10-02T11:00:00Z,30.6671,-87.9365,1.515,4.45,1111122 
DISL,ioos:station:DISL:MHPA:1,2014-10-02T11:30:00Z,30.6671,-87.9365,1.509,4.58,1111122 
DISL,ioos:station:DISL:MHPA:1,2014-10-02T12:00:00Z,30.6671,-87.9365,1.482,4.37,1111122 
DISL,ioos:station:DISL:MHPA:1,2014-10-02T12:30:00Z,30.6671,-87.9365,1.456,3.88,1111122 
DISL,ioos:station:DISL:MHPA:1,2014-10-02T13:00:00Z,30.6671,-87.9365,1.434,3.53,1111122 
DISL,ioos:station:DISL:MHPA:1,2014-10-02T13:30:00Z,30.6671,-87.9365,1.41,3.42,1111122 
DISL,ioos:station:DISL:MHPA:1,2014-10-02T14:00:00Z,30.6671,-87.9365,1.383,3.03,1111122 
DISL,ioos:station:DISL:MHPA:1,2014-10-02T14:30:00Z,30.6671,-87.9365,1.356,2.83,1111122 
DISL,ioos:station:DISL:MHPA:1,2014-10-02T15:00:00Z,30.6671,-87.9365,1.337,3.13,1111122 
DISL,ioos:station:DISL:MHPA:1,2014-10-02T15:30:00Z,30.6671,-87.9365,1.304,5.44,1111122 
DISL,ioos:station:DISL:MHPA:1,2014-10-02T16:00:00Z,30.6671,-87.9365,1.282,5.07,1111122 
DISL,ioos:station:DISL:MHPA:1,2014-10-02T16:30:00Z,30.6671,-87.9365,1.248,4.2,1111122 
DISL,ioos:station:DISL:MHPA:1,2014-10-02T17:00:00Z,30.6671,-87.9365,1.226,4.14,1111122 
DISL,ioos:station:DISL:MHPA:1,2014-10-02T17:30:00Z,30.6671,-87.9365,1.222,4.88,1111122 
DISL,ioos:station:DISL:MHPA:1,2014-10-02T18:00:00Z,30.6671,-87.9365,1.178,6.22,1111122 
DISL,ioos:station:DISL:MHPA:1,2014-10-02T18:30:00Z,30.6671,-87.9365,1.158,6.72,1111122 
DISL,ioos:station:DISL:MHPA:1,2014-10-02T19:00:00Z,30.6671,-87.9365,1.14,6.4,1111122 
DISL,ioos:station:DISL:MHPA:1,2014-10-02T19:30:00Z,30.6671,-87.9365,1.117,5.73,1111122 
DISL,ioos:station:DISL:MHPA:1,2014-10-02T20:00:00Z,30.6671,-87.9365,1.093,6.49,1111122 
DISL,ioos:station:DISL:MHPA:1,2014-10-02T20:30:00Z,30.6671,-87.9365,1.073,6.68,1111122 
DISL,ioos:station:DISL:MHPA:1,2014-10-02T21:00:00Z,30.6671,-87.9365,1.057,7.53,1111122 
DISL,ioos:station:DISL:MHPA:1,2014-10-02T21:30:00Z,30.6671,-87.9365,1.074,7.98,1111122 
DISL,ioos:station:DISL:MHPA:1,2014-10-02T22:00:00Z,30.6671,-87.9365,1.055,8.59,1111122 
DISL,ioos:station:DISL:MHPA:1,2014-10-02T22:30:00Z,30.6671,-87.9365,1.046,8.21,1111122 
DISL,ioos:station:DISL:MHPA:1,2014-10-02T23:00:00Z,30.6671,-87.9365,1.037,7.43,1111122 
DISL,ioos:station:DISL:MHPA:1,2014-10-02T23:30:00Z,30.6671,-87.9365,1.051,7.55,1111122 
DISL,ioos:station:DISL:MHPA:1,2014-10-03T00:00:00Z,30.6671,-87.9365,1.062,7.56,1111122 
DISL,ioos:station:DISL:MHPA:1,2014-10-03T00:30:00Z,30.6671,-87.9365,1.069,7.36,1111122 
DISL,ioos:station:DISL:MHPA:1,2014-10-03T01:00:00Z,30.6671,-87.9365,1.081,7.08,1111122 
DISL,ioos:station:DISL:MHPA:1,2014-10-03T01:30:00Z,30.6671,-87.9365,1.123,6.65,1111122 
DISL,ioos:station:DISL:MHPA:1,2014-10-03T02:00:00Z,30.6671,-87.9365,1.16,6.35,1111122 
DISL,ioos:station:DISL:MHPA:1,2014-10-03T02:30:00Z,30.6671,-87.9365,1.197,6.3,1111122 
DISL,ioos:station:DISL:MHPA:1,2014-10-03T03:00:00Z,30.6671,-87.9365,1.242,6.11,1111122 
DISL,ioos:station:DISL:MHPA:1,2014-10-03T03:30:00Z,30.6671,-87.9365,1.275,6.23,1111122 
DISL,ioos:station:DISL:MHPA:1,2014-10-03T04:00:00Z,30.6671,-87.9365,1.312,6.2,1111122 
DISL,ioos:station:DISL:MHPA:1,2014-10-03T04:30:00Z,30.6671,-87.9365,1.341,6.59,1111122 
DISL,ioos:station:DISL:MHPA:1,2014-10-03T05:00:00Z,30.6671,-87.9365,1.364,6.33,1111122 
DISL,ioos:station:DISL:MHPA:1,2014-10-03T05:30:00Z,30.6671,-87.9365,1.383,5.99,1111122 
DISL,ioos:station:DISL:MHPA:1,2014-10-03T06:00:00Z,30.6671,-87.9365,1.405,4.91,1111122 
DISL,ioos:station:DISL:MHPA:1,2014-10-03T06:30:00Z,30.6671,-87.9365,1.416,4.56,1111122 
DISL,ioos:station:DISL:MHPA:1,2014-10-03T07:00:00Z,30.6671,-87.9365,1.436,4.77,1111122 
DISL,ioos:station:DISL:MHPA:1,2014-10-03T07:30:00Z,30.6671,-87.9365,1.47,4.56,1111122 
DISL,ioos:station:DISL:MHPA:1,2014-10-03T08:00:00Z,30.6671,-87.9365,1.484,4.66,1111122 
DISL,ioos:station:DISL:MHPA:1,2014-10-03T08:30:00Z,30.6671,-87.9365,1.502,4.81,1111122 
DISL,ioos:station:DISL:MHPA:1,2014-10-03T09:00:00Z,30.6671,-87.9365,1.525,5.07,1111122 
DISL,ioos:station:DISL:MHPA:1,2014-10-03T09:30:00Z,30.6671,-87.9365,1.55,4.65,1111122 
DISL,ioos:station:DISL:MHPA:1,2014-10-03T10:00:00Z,30.6671,-87.9365,1.561,3.47,1111122 
DISL,ioos:station:DISL:MHPA:1,2014-10-03T10:30:00Z,30.6671,-87.9365,1.565,3.94,1111122 
DISL,ioos:station:DISL:MHPA:1,2014-10-03T11:00:00Z,30.6671,-87.9365,1.562,3.55,1111122 
DISL,ioos:station:DISL:MHPA:1,2014-10-03T11:30:00Z,30.6671,-87.9365,1.568,4.27,1111122 
DISL,ioos:station:DISL:MHPA:1,2014-10-03T12:00:00Z,30.6671,-87.9365,1.547,4.19,1111122 
DISL,ioos:station:DISL:MHPA:1,2014-10-03T12:30:00Z,30.6671,-87.9365,1.626,4.69,1111122 
DISL,ioos:station:DISL:MHPA:1,2014-10-03T13:00:00Z,30.6671,-87.9365,1.583,3.74,1111122 
DISL,ioos:station:DISL:MHPA:1,2014-10-03T13:30:00Z,30.6671,-87.9365,1.505,3.51,1111122 
DISL,ioos:station:DISL:MHPA:1,2014-10-03T14:00:00Z,30.6671,-87.9365,1.458,3.28,1111122 
DISL,ioos:station:DISL:MHPA:1,2014-10-03T14:30:00Z,30.6671,-87.9365,1.41,3.32,1111122 
DISL,ioos:station:DISL:MHPA:1,2014-10-03T15:00:00Z,30.6671,-87.9365,1.39,3.24,1111122 
DISL,ioos:station:DISL:MHPA:1,2014-10-03T15:30:00Z,30.6671,-87.9365,1.351,3.84,1111122 
DISL,ioos:station:DISL:MHPA:1,2014-10-03T16:00:00Z,30.6671,-87.9365,1.396,3.12,1111122 
DISL,ioos:station:DISL:MHPA:1,2014-10-03T16:30:00Z,30.6671,-87.9365,1.392,3.41,1111122 
DISL,ioos:station:DISL:MHPA:1,2014-10-03T17:00:00Z,30.6671,-87.9365,1.355,3.28,1111122 
DISL,ioos:station:DISL:MHPA:1,2014-10-03T17:30:00Z,30.6671,-87.9365,1.287,3.85,1111122 
DISL,ioos:station:DISL:MHPA:1,2014-10-03T18:00:00Z,30.6671,-87.9365,1.246,2.95,1111122 
DISL,ioos:station:DISL:MHPA:1,2014-10-03T18:30:00Z,30.6671,-87.9365,1.18,3.14,1111122 
DISL,ioos:station:DISL:MHPA:1,2014-10-03T19:00:00Z,30.6671,-87.9365,1.124,3.43,1111122 
DISL,ioos:station:DISL:MHPA:1,2014-10-03T19:30:00Z,30.6671,-87.9365,1.089,3.2,1111122 
DISL,ioos:station:DISL:MHPA:1,2014-10-03T20:00:00Z,30.6671,-87.9365,1.069,3.76,1111122 
DISL,ioos:station:DISL:MHPA:1,2014-10-03T20:30:00Z,30.6671,-87.9365,1.054,3.35,1111122 
DISL,ioos:station:DISL:MHPA:1,2014-10-03T21:00:00Z,30.6671,-87.9365,1.026,3.81,1111122 
DISL,ioos:station:DISL:MHPA:1,2014-10-03T21:30:00Z,30.6671,-87.9365,1.012,3.97,1111122 
DISL,ioos:station:DISL:MHPA:1,2014-10-03T22:00:00Z,30.6671,-87.9365,1.041,3.89,1111122 
DISL,ioos:station:DISL:MHPA:1,2014-10-03T22:30:00Z,30.6671,-87.9365,1.001,3.97,1111122 
DISL,ioos:station:DISL:MHPA:1,2014-10-03T23:00:00Z,30.6671,-87.9365,0.951,4.71,1111122 
DISL,ioos:station:DISL:MHPA:1,2014-10-03T23:30:00Z,30.6671,-87.9365,0.937,3.99,1111122 
DISL,ioos:station:DISL:MHPA:1,2014-10-04T00:00:00Z,30.6671,-87.9365,0.907,4.45,1111122 
DISL,ioos:station:DISL:MHPA:1,2014-10-04T00:30:00Z,30.6671,-87.9365,0.87,4.5,1111122 
DISL,ioos:station:DISL:MHPA:1,2014-10-04T01:00:00Z,30.6671,-87.9365,0.852,4.56,1111122 
DISL,ioos:station:DISL:MHPA:1,2014-10-04T01:30:00Z,30.6671,-87.9365,0.868,4.91,1111122 
DISL,ioos:station:DISL:MHPA:1,2014-10-04T02:00:00Z,30.6671,-87.9365,0.898,4.73,1111122 
DISL,ioos:station:DISL:MHPA:1,2014-10-04T02:30:00Z,30.6671,-87.9365,0.893,5.68,1111122 
DISL,ioos:station:DISL:MHPA:1,2014-10-04T03:00:00Z,30.6671,-87.9365,0.949,4.81,1111122 
DISL,ioos:station:DISL:MHPA:1,2014-10-04T03:30:00Z,30.6671,-87.9365,1.024,4.02,1111122 
DISL,ioos:station:DISL:MHPA:1,2014-10-04T04:00:00Z,30.6671,-87.9365,1.077,3.51,1111122 
DISL,ioos:station:DISL:MHPA:1,2014-10-04T04:30:00Z,30.6671,-87.9365,1.106,3.51,1111122 
DISL,ioos:station:DISL:MHPA:1,2014-10-04T05:00:00Z,30.6671,-87.9365,1.096,3.61,1111122 
DISL,ioos:station:DISL:MHPA:1,2014-10-04T05:30:00Z,30.6671,-87.9365,1.085,4.15,1111122 
DISL,ioos:station:DISL:MHPA:1,2014-10-04T06:00:00Z,30.6671,-87.9365,1.068,4.37,1111122 
DISL,ioos:station:DISL:MHPA:1,2014-10-04T06:30:00Z,30.6671,-87.9365,1.064,4.46,1111122 
DISL,ioos:station:DISL:MHPA:1,2014-10-04T07:00:00Z,30.6671,-87.9365,1.076,4.81,1111122 
DISL,ioos:station:DISL:MHPA:1,2014-10-04T07:30:00Z,30.6671,-87.9365,1.106,4.67,1111122 
DISL,ioos:station:DISL:MHPA:1,2014-10-04T08:00:00Z,30.6671,-87.9365,1.122,4.39,1111122 
DISL,ioos:station:DISL:MHPA:1,2014-10-04T08:30:00Z,30.6671,-87.9365,1.116,4.46,1111122 
DISL,ioos:station:DISL:MHPA:1,2014-10-04T09:00:00Z,30.6671,-87.9365,1.124,4.4,1111122 
DISL,ioos:station:DISL:MHPA:1,2014-10-04T09:30:00Z,30.6671,-87.9365,1.118,4.12,1111122 
DISL,ioos:station:DISL:MHPA:1,2014-10-04T10:00:00Z,30.6671,-87.9365,1.105,3.99,1111122 
DISL,ioos:station:DISL:MHPA:1,2014-10-04T10:30:00Z,30.6671,-87.9365,1.101,4.09,1111122 
DISL,ioos:station:DISL:MHPA:1,2014-10-04T11:00:00Z,30.6671,-87.9365,1.097,4.19,1111122 
DISL,ioos:station:DISL:MHPA:1,2014-10-04T11:30:00Z,30.6671,-87.9365,1.1,4.18,1111122 
DISL,ioos:station:DISL:MHPA:1,2014-10-04T12:00:00Z,30.6671,-87.9365,1.098,4.32,1111122 
DISL,ioos:station:DISL:MHPA:1,2014-10-04T12:30:00Z,30.6671,-87.9365,1.079,4.08,1111122 
DISL,ioos:station:DISL:MHPA:1,2014-10-04T13:00:00Z,30.6671,-87.9365,1.077,4.06,1111122 
DISL,ioos:station:DISL:MHPA:1,2014-10-04T13:30:00Z,30.6671,-87.9365,1.062,4.02,1111122 
DISL,ioos:station:DISL:MHPA:1,2014-10-04T14:00:00Z,30.6671,-87.9365,1.04,4.13,1111122 
DISL,ioos:station:DISL:MHPA:1,2014-10-04T14:30:00Z,30.6671,-87.9365,1.037,4.31,1111122 
DISL,ioos:station:DISL:MHPA:1,2014-10-04T15:00:00Z,30.6671,-87.9365,1.014,4.28,1111122 
DISL,ioos:station:DISL:MHPA:1,2014-10-04T15:30:00Z,30.6671,-87.9365,0.986,4.32,1111122 
DISL,ioos:station:DISL:MHPA:1,2014-10-04T16:00:00Z,30.6671,-87.9365,0.969,4.29,1111122 
DISL,ioos:station:DISL:MHPA:1,2014-10-04T16:30:00Z,30.6671,-87.9365,0.96,4.37,1111122 
DISL,ioos:station:DISL:MHPA:1,2014-10-04T17:00:00Z,30.6671,-87.9365,0.941,4.59,1111122 
DISL,ioos:station:DISL:MHPA:1,2014-10-04T17:30:00Z,30.6671,-87.9365,0.91,4.78,1111122 
DISL,ioos:station:DISL:MHPA:1,2014-10-04T18:00:00Z,30.6671,-87.9365,0.893,4.88,1111122 
DISL,ioos:station:DISL:MHPA:1,2014-10-04T18:30:00Z,30.6671,-87.9365,0.88,4.98,1111122 
DISL,ioos:station:DISL:MHPA:1,2014-10-04T19:00:00Z,30.6671,-87.9365,0.874,5.21,1111122 
DISL,ioos:station:DISL:MHPA:1,2014-10-04T19:30:00Z,30.6671,-87.9365,0.884,5.28,1111122 
DISL,ioos:station:DISL:MHPA:1,2014-10-04T20:00:00Z,30.6671,-87.9365,0.884,5.45,1111122 
DISL,ioos:station:DISL:MHPA:1,2014-10-04T20:30:00Z,30.6671,-87.9365,0.866,5.51,1111122 
DISL,ioos:station:DISL:MHPA:1,2014-10-04T21:00:00Z,30.6671,-87.9365,0.854,5.33,1111122 
DISL,ioos:station:DISL:MHPA:1,2014-10-04T21:30:00Z,30.6671,-87.9365,0.836,5.67,1111122 
DISL,ioos:station:DISL:MHPA:1,2014-10-04T22:00:00Z,30.6671,-87.9365,0.82,5.62,1111122 
DISL,ioos:station:DISL:MHPA:1,2014-10-04T22:30:00Z,30.6671,-87.9365,0.807,5.71,1111122 
DISL,ioos:station:DISL:MHPA:1,2014-10-04T23:00:00Z,30.6671,-87.9365,0.796,5.92,1111122 
DISL,ioos:station:DISL:MHPA:1,2014-10-04T23:30:00Z,30.6671,-87.9365,0.784,5.73,1111122 
DISL,ioos:station:DISL:MHPA:1,2014-10-05T00:00:00Z,30.6671,-87.9365,0.787,5.73,1111122 
DISL,ioos:station:DISL:MHPA:1,2014-10-05T00:30:00Z,30.6671,-87.9365,0.779,5.71,1111122 
DISL,ioos:station:DISL:MHPA:1,2014-10-05T01:00:00Z,30.6671,-87.9365,0.79,5.69,1111122 
DISL,ioos:station:DISL:MHPA:1,2014-10-05T01:30:00Z,30.6671,-87.9365,0.813,5.8,1111122 
DISL,ioos:station:DISL:MHPA:1,2014-10-05T02:00:00Z,30.6671,-87.9365,0.83,5.67,1111122 
DISL,ioos:station:DISL:MHPA:1,2014-10-05T02:30:00Z,30.6671,-87.9365,0.841,5.61,1111122 
DISL,ioos:station:DISL:MHPA:1,2014-10-05T03:00:00Z,30.6671,-87.9365,0.85,5.57,1111122 
DISL,ioos:station:DISL:MHPA:1,2014-10-05T03:30:00Z,30.6671,-87.9365,0.863,5.53,1111122 
DISL,ioos:station:DISL:MHPA:1,2014-10-05T04:00:00Z,30.6671,-87.9365,0.903,5.45,1111122 
DISL,ioos:station:DISL:MHPA:1,2014-10-05T04:30:00Z,30.6671,-87.9365,0.945,5.29,1111122 
DISL,ioos:station:DISL:MHPA:1,2014-10-05T05:00:00Z,30.6671,-87.9365,0.978,5.24,1111122 
DISL,ioos:station:DISL:MHPA:1,2014-10-05T05:30:00Z,30.6671,-87.9365,1.017,5.24,1111122 
DISL,ioos:station:DISL:MHPA:1,2014-10-05T06:00:00Z,30.6671,-87.9365,1.042,5.17,1111122 
DISL,ioos:station:DISL:MHPA:1,2014-10-05T06:30:00Z,30.6671,-87.9365,1.069,5.14,1111122 
DISL,ioos:station:DISL:MHPA:1,2014-10-05T07:00:00Z,30.6671,-87.9365,1.086,4.86,1111122 
DISL,ioos:station:DISL:MHPA:1,2014-10-05T07:30:00Z,30.6671,-87.9365,1.084,4.78,1111122 
DISL,ioos:station:DISL:MHPA:1,2014-10-05T08:00:00Z,30.6671,-87.9365,1.089,4.86,1111122 
DISL,ioos:station:DISL:MHPA:1,2014-10-05T08:30:00Z,30.6671,-87.9365,1.09,4.9,1111122 
DISL,ioos:station:DISL:MHPA:1,2014-10-05T09:00:00Z,30.6671,-87.9365,1.084,4.7,1111122 
DISL,ioos:station:DISL:MHPA:1,2014-10-05T09:30:00Z,30.6671,-87.9365,1.098,4.9,1111122 
DISL,ioos:station:DISL:MHPA:1,2014-10-05T10:00:00Z,30.6671,-87.9365,1.112,4.76,1111122 
DISL,ioos:station:DISL:MHPA:1,2014-10-05T10:30:00Z,30.6671,-87.9365,1.113,4.75,1111122 
DISL,ioos:station:DISL:MHPA:1,2014-10-05T11:00:00Z,30.6671,-87.9365,1.12,4.63,1111122 
DISL,ioos:station:DISL:MHPA:1,2014-10-05T11:30:00Z,30.6671,-87.9365,1.147,4.6,1111122 
DISL,ioos:station:DISL:MHPA:1,2014-10-05T12:00:00Z,30.6671,-87.9365,1.155,4.6,1111122 
DISL,ioos:station:DISL:MHPA:1,2014-10-05T12:30:00Z,30.6671,-87.9365,1.167,4.35,1111122 
DISL,ioos:station:DISL:MHPA:1,2014-10-05T13:00:00Z,30.6671,-87.9365,1.187,4.48,1111122 
DISL,ioos:station:DISL:MHPA:1,2014-10-05T13:30:00Z,30.6671,-87.9365,1.199,4.41,1111122 
DISL,ioos:station:DISL:MHPA:1,2014-10-05T14:00:00Z,30.6671,-87.9365,1.2,4.38,1111122 
DISL,ioos:station:DISL:MHPA:1,2014-10-05T14:30:00Z,30.6671,-87.9365,1.207,4.6,1111122 
DISL,ioos:station:DISL:MHPA:1,2014-10-05T15:00:00Z,30.6671,-87.9365,1.215,4.79,1111122 
DISL,ioos:station:DISL:MHPA:1,2014-10-05T15:30:00Z,30.6671,-87.9365,1.22,4.84,1111122 
DISL,ioos:station:DISL:MHPA:1,2014-10-05T16:00:00Z,30.6671,-87.9365,1.223,5.44,1111122 
DISL,ioos:station:DISL:MHPA:1,2014-10-05T16:30:00Z,30.6671,-87.9365,1.229,4.97,1111122 
DISL,ioos:station:DISL:MHPA:1,2014-10-05T17:00:00Z,30.6671,-87.9365,1.234,5.08,1111122 
DISL,ioos:station:DISL:MHPA:1,2014-10-05T17:30:00Z,30.6671,-87.9365,1.239,5.18,1111122 
DISL,ioos:station:DISL:MHPA:1,2014-10-05T18:00:00Z,30.6671,-87.9365,1.238,5.54,1111122 
DISL,ioos:station:DISL:MHPA:1,2014-10-05T18:30:00Z,30.6671,-87.9365,1.22,5.78,1111122 
DISL,ioos:station:DISL:MHPA:1,2014-10-05T19:00:00Z,30.6671,-87.9365,1.207,5.51,1111122 
DISL,ioos:station:DISL:MHPA:1,2014-10-05T19:30:00Z,30.6671,-87.9365,1.176,5.95,1111122 
DISL,ioos:station:DISL:MHPA:1,2014-10-05T20:00:00Z,30.6671,-87.9365,1.154,6.37,1111122 
DISL,ioos:station:DISL:MHPA:1,2014-10-05T20:30:00Z,30.6671,-87.9365,1.135,7.55,1111122 
DISL,ioos:station:DISL:MHPA:1,2014-10-05T21:00:00Z,30.6671,-87.9365,1.099,7.56,1111122 
DISL,ioos:station:DISL:MHPA:1,2014-10-05T21:30:00Z,30.6671,-87.9365,1.071,8.09,1111122 
DISL,ioos:station:DISL:MHPA:1,2014-10-05T22:00:00Z,30.6671,-87.9365,1.036,8.55,1111122 
DISL,ioos:station:DISL:MHPA:1,2014-10-05T22:30:00Z,30.6671,-87.9365,1.006,8.82,1111122 
DISL,ioos:station:DISL:MHPA:1,2014-10-05T23:00:00Z,30.6671,-87.9365,0.993,9.13,1111122 
DISL,ioos:station:DISL:MHPA:1,2014-10-05T23:30:00Z,30.6671,-87.9365,0.985,8.84,1111122 
DISL,ioos:station:DISL:MHPA:1,2014-10-06T00:00:00Z,30.6671,-87.9365,0.98,8.59,1111122 
DISL,ioos:station:DISL:MHPA:1,2014-10-06T00:30:00Z,30.6671,-87.9365,0.967,8.75,1111122 
DISL,ioos:station:DISL:MHPA:1,2014-10-06T01:00:00Z,30.6671,-87.9365,0.963,7.79,1111122 
DISL,ioos:station:DISL:MHPA:1,2014-10-06T01:30:00Z,30.6671,-87.9365,0.976,7.72,1111122 
DISL,ioos:station:DISL:MHPA:1,2014-10-06T02:00:00Z,30.6671,-87.9365,0.984,7.59,1111122 
DISL,ioos:station:DISL:MHPA:1,2014-10-06T02:30:00Z,30.6671,-87.9365,0.997,7.83,1111122 
DISL,ioos:station:DISL:MHPA:1,2014-10-06T03:00:00Z,30.6671,-87.9365,1.012,8.16,1111122 
DISL,ioos:station:DISL:MHPA:1,2014-10-06T03:30:00Z,30.6671,-87.9365,1.03,7.65,1111122 
DISL,ioos:station:DISL:MHPA:1,2014-10-06T04:00:00Z,30.6671,-87.9365,1.055,6.99,1111122 
DISL,ioos:station:DISL:MHPA:1,2014-10-06T04:30:00Z,30.6671,-87.9365,1.08,6.63,1111122 
DISL,ioos:station:DISL:MHPA:1,2014-10-06T05:00:00Z,30.6671,-87.9365,1.104,6.38,1111122 
DISL,ioos:station:DISL:MHPA:1,2014-10-06T05:30:00Z,30.6671,-87.9365,1.138,6.42,1111122 
DISL,ioos:station:DISL:MHPA:1,2014-10-06T06:00:00Z,30.6671,-87.9365,1.16,6.56,1111122 
DISL,ioos:station:DISL:MHPA:1,2014-10-06T06:30:00Z,30.6671,-87.9365,1.179,6.52,1111122 
DISL,ioos:station:DISL:MHPA:1,2014-10-06T07:00:00Z,30.6671,-87.9365,1.187,6.23,1111122 
DISL,ioos:station:DISL:MHPA:1,2014-10-06T07:30:00Z,30.6671,-87.9365,1.189,6.23,1111122 
DISL,ioos:station:DISL:MHPA:1,2014-10-06T08:00:00Z,30.6671,-87.9365,1.176,5.97,1111122 
DISL,ioos:station:DISL:MHPA:1,2014-10-06T08:30:00Z,30.6671,-87.9365,1.156,6.03,1111122 
DISL,ioos:station:DISL:MHPA:1,2014-10-06T09:00:00Z,30.6671,-87.9365,1.151,6.09,1111122 
DISL,ioos:station:DISL:MHPA:1,2014-10-06T09:30:00Z,30.6671,-87.9365,1.139,6.24,1111122 
DISL,ioos:station:DISL:MHPA:1,2014-10-06T10:00:00Z,30.6671,-87.9365,1.128,6.12,1111122 
DISL,ioos:station:DISL:MHPA:1,2014-10-06T10:30:00Z,30.6671,-87.9365,1.124,6.22,1111122 
DISL,ioos:station:DISL:MHPA:1,2014-10-06T11:00:00Z,30.6671,-87.9365,1.133,6.49,1111122 
DISL,ioos:station:DISL:MHPA:1,2014-10-06T11:30:00Z,30.6671,-87.9365,1.147,6.13,1111122 
DISL,ioos:station:DISL:MHPA:1,2014-10-06T12:00:00Z,30.6671,-87.9365,1.158,6.37,1111122 
DISL,ioos:station:DISL:MHPA:1,2014-10-06T12:30:00Z,30.6671,-87.9365,1.175,5.96,1111122 
DISL,ioos:station:DISL:MHPA:1,2014-10-06T13:00:00Z,30.6671,-87.9365,1.199,6.27,1111122 
DISL,ioos:station:DISL:MHPA:1,2014-10-06T13:30:00Z,30.6671,-87.9365,1.214,6.0,1111122 
DISL,ioos:station:DISL:MHPA:1,2014-10-06T14:00:00Z,30.6671,-87.9365,1.24,6.06,1111122 
DISL,ioos:station:DISL:MHPA:1,2014-10-06T14:30:00Z,30.6671,-87.9365,1.264,6.38,1111122 
DISL,ioos:station:DISL:MHPA:1,2014-10-06T15:00:00Z,30.6671,-87.9365,1.286,6.37,1111122 
DISL,ioos:station:DISL:MHPA:1,2014-10-06T15:30:00Z,30.6671,-87.9365,1.302,6.38,1111122 